St. Johnsbury, VT

10:32 PM EDT on June 24, 2017 (GMT -0400)
St. Johnsbury

Weather History for K1V4 - May, 2013

Change the Weather History Date:

Friday, May 3, 2013

  Actual Average Record
Temperature  
Mean Temperature 55 °F 52 °F  
Max Temperature 72 °F 65 °F 89 °F (2001)
Min Temperature 37 °F 39 °F 20 °F (1966)
Degree Days  
Heating Degree Days 11 13  
Month to date heating degree days 41  
Since 1 July heating degree days 7460  
Cooling Degree Days 0 0  
Month to date cooling degree days 0 0  
Year to date cooling degree days 0 1  
Growing Degree Days 4 (Base 50)    
Moisture  
Dew Point 34 °F    
Average Humidity 55    
Maximum Humidity 82    
Minimum Humidity 28    
Precipitation  
Precipitation 0.00 in 0.10 in 1.14 in (1967)
Month to date precipitation 0.00 0.30  
Year to date precipitation 7.74 10.35  
Sea Level Pressure  
Sea Level Pressure 30.41 in    
Wind  
Wind Speed - (North)    
Max Wind Speed -    
Max Gust Speed -    
T = Trace of Precipitation, MM = Missing Value Source: NWS Daily Summary

Daily Weather History Graph

Daily Weather History Graph

Search for Another Location

Airport or City:

Trip Planner

Search our weather history database for the weather conditions in past years. The results will help you decide how hot, cold, wet, or windy it might be!

Date:

Astronomy

May. 03, 2013 Rise Set
Actual Time 5:35 AM EDT 7:55 PM EDT
Civil Twilight 5:03 AM EDT 8:27 PM EDT
Nautical Twilight 4:23 AM EDT 9:07 PM EDT
Astronomical Twilight 3:38 AM EDT 9:52 PM EDT
Moon 2:13 AM EDT (5/3) 1:32 PM EDT (5/3)
Length of Visible Light 15h 23m
Length of Day
14h 19m
Last Quarter, 37% of the Moon is Illuminated
May 3
Last Quarter
May 9
New
May 18
First Quarter
May 25
Full
May 31
Last Quarter

Hourly Weather History & Observations

Time (EDT) Temp. Dew Point Humidity Pressure Visibility Wind Dir Wind Speed Gust Speed Precip Events Conditions
12:54 AM 51.1 °F 26.1 °F 38% 30.43 in - North - - N/A   Unknown
1:54 AM 50.0 °F 25.0 °F 38% 30.43 in - North - - N/A   Unknown
2:54 AM 48.0 °F 27.0 °F 44% 30.44 in - North - - N/A   Unknown
3:54 AM 42.1 °F 30.0 °F 62% 30.46 in - North - - N/A   Unknown
4:54 AM 39.9 °F 30.9 °F 70% 30.47 in - North - - N/A   Unknown
5:54 AM 37.9 °F 32.0 °F 79% 30.50 in - North - - N/A   Unknown
6:54 AM 39.0 °F 30.9 °F 73% 30.52 in - North - - N/A   Unknown
7:54 AM 45.0 °F 32.0 °F 60% 30.52 in - North - - N/A   Unknown
8:54 AM 48.9 °F 33.1 °F 54% 30.51 in - North - - N/A   Unknown
9:54 AM 52.0 °F 33.1 °F 49% 30.50 in - North - - N/A   Unknown
10:54 AM 57.0 °F 34.0 °F 42% 30.48 in - North - - N/A   Unknown
11:54 AM 61.0 °F 34.0 °F 36% 30.45 in - North - - N/A   Unknown
12:54 PM 64.9 °F 35.1 °F 33% 30.41 in - North - - N/A   Unknown
1:54 PM 66.0 °F 35.1 °F 32% 30.39 in - North - - N/A   Unknown
2:54 PM 68.0 °F 36.0 °F 31% 30.36 in - North - - N/A   Unknown
3:54 PM 70.0 °F 36.0 °F 29% 30.33 in - North - - N/A   Unknown
4:54 PM 71.1 °F 37.0 °F 29% 30.32 in - North - - N/A   Unknown
5:54 PM 70.0 °F 36.0 °F 29% 30.31 in - North - - N/A   Unknown
6:54 PM 69.1 °F 37.0 °F 31% 30.31 in - North - - N/A   Unknown
7:54 PM 66.0 °F 37.0 °F 34% 30.32 in - North - - N/A   Unknown
8:54 PM 63.0 °F 39.0 °F 41% 30.33 in - North - - N/A   Unknown
9:54 PM 59.0 °F 39.9 °F 49% 30.35 in - North - - N/A   Unknown
10:54 PM 53.1 °F 41.0 °F 64% 30.35 in - North - - N/A   Unknown
11:54 PM 50.0 °F 41.0 °F 71% 30.35 in - North - - N/A   Unknown